Regional Weather Roundup
Issued by NWS

Home | Current Version | Previous Version | Graphics & Text | Print | Product List | Glossary Off
Versions: 1 2 3 4 5 6 7 8 9 10 11 12 13 14 15 16 17 18 19 20 21 22 23 24 25 26 27 28 29 30 31 32 33 34 35 36 37 38 39 40 41 42 43 44 45 46 47 48 49 50

000
ASUS43 KDMX 041204
RWRIA

WEATHER ROUNDUP FOR IOWA
NATIONAL WEATHER SERVICE DES MOINES IA
  ISSUED BY NWS QUAD CITIES IA IL
600 AM CST WED MAR 04 2015

NOTE: "FAIR" INDICATES FEW OR NO CLOUDS BELOW 12,000 FEET WITH NO
SIGNIFICANT WEATHER AND/OR OBSTRUCTIONS TO VISIBILITY.

* - THESE STATIONS ARE NOT NWS STATIONS...THUS NOT UNDER NWS
QUALITY CONTROL.  THEY ALSO DO NOT REPORT WEATHER SUCH
AS PRECIPITATION OR FOG.

IAZ001>003-012>014-020>022-031>034-043>046-041300-
   NORTHWEST IOWA

CITY           SKY/WX    TMP DP  RH WIND       PRES   REMARKS
CARROLL *      CLOUDY    10   3  72 NW5       30.21R WCI   2
CHEROKEE *     PTSUNNY    8   1  75 NW3       30.21R
6HR MIN TEMP:   8; 6HR MAX TEMP:  12;

DENNISON *     MOCLDY    10   3  72 W5        30.20R WCI   2
LE MARS *      PTCLDY     7   3  85 CALM      30.22R
ORANGE CITY *  PTCLDY     5  -2  72 CALM      30.18R
SHELDON *      PTCLDY     3  -6  66 W6        30.17R WCI  -8
SIOUX CITY     PTCLDY    10   4  76 W3        30.23R
6HR MIN TEMP:  10; 6HR MAX TEMP:  16;

SPENCER        FAIR       4  -3  73 W7        30.17R WCI  -8
6HR MIN TEMP:   3; 6HR MAX TEMP:  11;

STORM LAKE *   PTCLDY     7  -2  66 NW9       30.18R WCI  -7
$$

IAZ055>058-069>071-079>083-090>094-041300-
   SOUTHWEST IOWA

CITY           SKY/WX    TMP DP  RH WIND       PRES   REMARKS
ATLANTIC *     MOCLDY    12   5  73 CALM      30.24R
AUDUBON *      CLEAR     10   3  72 CALM      30.21R
CLARINDA *     CLOUDY    14   9  79 N9        30.26R WCI   2
COUNCIL BLFS * MOCLDY    14   7  73 CALM      30.23R
CRESTON *      PTCLDY    12   1  62 N8        30.21R WCI   1
HARLAN *       PTCLDY    10   9  92 NW6       30.26R WCI   1
LAMONI         CLOUDY    15   3  59 N14       30.19R WCI   0
6HR MIN TEMP:  14; 6HR MAX TEMP:  18;

RED OAK *      CLEAR     10   7  85 NW3       30.25R
SHENANDOAH *   PTCLDY    12   9  85 N5        30.27R WCI   4
$$

IAZ047>049-059>061-072>074-084-041300-
   CENTRAL IOWA

CITY           SKY/WX    TMP DP  RH WIND       PRES   REMARKS
AMES           PTCLDY     9  -1  64 NW8       30.21R WCI  -3
6HR MIN TEMP:   9; 6HR MAX TEMP:  14; 6HR PCP: TRACE;

ANKENY *       CLEAR     12   0  57 N10       30.23R WCI  -1
BOONE *        PTCLDY    10  -2  56 NW9       30.18R WCI  -2
CHARITON *     CLOUDY    16   3  57 N13       30.20R WCI   2
DES MOINES     PTCLDY    13   0  56 NW9       30.23R WCI   1
6HR MIN TEMP:  13; 6HR MAX TEMP:  16;

GRINNELL *     CLOUDY    11  -1  58 NW18G24   30.18R WCI  -7
6HR MIN TEMP:  10; 6HR MAX TEMP:  12;

KNOXVILLE *    CLOUDY    14   0  52 NW15G26   30.19R WCI  -1
MARSHALLTOWN   PTCLDY     7  -3  64 NW16      30.18R WCI -11
6HR MIN TEMP:   7; 6HR MAX TEMP:  11;

NEWTON *       MOCLDY    10  -2  56 N14G23    30.21R WCI  -5
PELLA *        PTCLDY    14   6  69 NW17      30.21R WCI  -3
6HR MIN TEMP:  13; 6HR MAX TEMP:  17;

PERRY *          N/A     11   3  71 N7        30.22R WCI   0
6HR MIN TEMP:  11; 6HR MAX TEMP:  15;

$$

IAZ004>006-015-016-023>025-035-036-041300-
   NORTH CENTRAL IOWA

CITY           SKY/WX    TMP DP  RH WIND       PRES   REMARKS
ALGONA *       PTCLDY     7 N/A N/A NW10      30.18R WCI  -8
CLARION *      FAIR       7  -4  61 NW13      30.18R WCI  -9
ESTHERVILLE    PTCLDY     1  -5  75 NW7       30.16R WCI -12
6HR MIN TEMP:   1; 6HR MAX TEMP:   9;

FORT DODGE *   PTCLDY     9  -6  52 NW6       30.20R WCI  -1
6HR MIN TEMP:   9; 6HR MAX TEMP:  10;

MASON CITY     CLEAR      4  -5  66 NW15      30.16R WCI -14
6HR MIN TEMP:   4; 6HR MAX TEMP:   8;

FOREST CITY *  FAIR       5  -6  61 NW9       30.15R WCI  -9
WEBSTER CITY * CLOUDY     9  -4  56 NW16      30.18R WCI  -9
IOWA FALLS *   FAIR       6  -2  68 NW12      30.18R WCI  -9
6HR MIN TEMP:   6; 6HR MAX TEMP:  10;

$$

IAZ007>011-017>019-026>030-037>042-050>054-066-041300-
   NORTHEAST IOWA

CITY           SKY/WX    TMP DP  RH WIND       PRES   REMARKS
CEDAR RAPIDS   CLOUDY    10   1  67 NW18      30.13R WCI  -8
6HR MIN TEMP:   7; 6HR MAX TEMP:  12; 6HR PCP: TRACE;

CHARLES CITY * CLOUDY     5  -4  66 NW12      30.15R WCI -11
CLINTON *      FAIR       3  -2  78 W5        30.13R WCI  -6
6HR MIN TEMP:   3; 6HR MAX TEMP:  18;

DECORAH *      MOCLDY     5  -6  61 NW12G20   30.10R WCI -11
DUBUQUE          N/A    N/A N/A N/A MISG      30.08R
MONTICELLO *   CLOUDY     9   0  66 NW14      30.13R WCI  -8
OELWEIN *      CLOUDY     5  -2  72 NW17      30.14R WCI -14
WATERLOO       PTCLDY     6  -2  69 NW10      30.16R WCI  -9
6HR MIN TEMP:   6; 6HR MAX TEMP:  10;

$$

IAZ064-065-067-068-078-041300-
   EAST CENTRAL IOWA

CITY           SKY/WX    TMP DP  RH WIND       PRES   REMARKS
DAVENPORT      PTCLDY     8  -1  66 NW13      30.12R WCI  -8
6HR MIN TEMP:   7; 6HR MAX TEMP:  19;

IOWA CITY      CLOUDY    11   2  67 NW14      30.17R WCI  -5
6HR MIN TEMP:  10; 6HR MAX TEMP:  16;

MT. PLEASANT * MOCLDY    12   2  65 NW12G17   30.17R WCI  -2
6HR MIN TEMP:  11; 6HR MAX TEMP:  19;

MUSCATINE *    CLOUDY    12   3  67 NW14G20   30.17R WCI  -3
QUAD CITIES    MOCLDY    11   1  64 NW16      30.12S WCI  -6
6HR MIN TEMP:  11; 6HR MAX TEMP:  20;

$$

IAZ062-063-075>077-085>089-095>099-041300-
   SOUTHEAST IOWA

CITY           SKY/WX    TMP DP  RH WIND       PRES   REMARKS
BURLINGTON     PTCLDY    11   2  67 NW13      30.15R WCI  -4
6HR MIN TEMP:  11; 6HR MAX TEMP:  23;

FAIRFIELD *    CLOUDY    14   1  57 NW15G22   30.17R WCI  -1
FORT MADISON * PTCLDY    12   3  67 NW12      30.17R WCI  -2
KEOKUK *       MOCLDY    14   5  67 NW9G15    30.16R WCI   2
OSKALOOSA *    CLOUDY    13   3  64 NW20G25   30.19R WCI  -5
6HR MIN TEMP:  12; 6HR MAX TEMP:  16;

CENTERVILLE *  FAIR      16   5  62 N18       30.20R WCI  -1
OTTUMWA        CLOUDY    14   2  58 NW20      30.18R WCI  -3
6HR MIN TEMP:  12; 6HR MAX TEMP:  17;

WASHINGTON *   CLOUDY    12   7  79 NW14      30.17R WCI  -3
$$

ABBREVIATIONS USED IN REMARKS
   TC - TEMPERATURES IN CELSIUS
  WCI - WIND CHILL INDEX
   HX - HEAT INDEX
  VSB - VISIBILITY
$$



USA.gov is the U.S. government's official web portal to all federal, state and local government web resources and services.